TITAN 3C TRANSTAGE DEB, 1961

Orbit data source: Space-Track

TITAN 3C TRANSTAGE DEB, 1961 is space debris in LEO originally from a launch on Fri, 15 Oct 1965 UTC launched from the Air Force Eastern Test Range (AFETR). Debris objects in space refer to the collection of defunct objects orbiting the Earth. Examples of debris include non-operational satellites, rocket bodies, and fragments generated from explosions, collisions, or faulty payload assembly.

Loading next visibility...
Identifier
1961, 1965-082GW
Orbit
LEO
Country
Flag of USUS
Related business
Manufacturer
Unknown
Mission
Spacecraft
Bus & Motor
Unknown
Mass
Unknown
Launch date (UTC)
1965-10-15 (61 years ago)
Launch vehicle
Unknown
Launch site
Air Force Eastern Test Range (AFETR)
Object type
Payload
Rocket body
Debris
Shape & HBR
Unknown shape, 0.1 m
Radar Cross Section
Medium (>0.1 m² and <1 m²)

Expand to show TLE details & history
Last TLE update: 22 hours ago

TLE from 22 hours ago
0 TITAN 3C TRANSTAGE DEB
1  1961U 65082GW  26197.39825405  .00003167  00000-0  15455-3 0  9999
2  1961  31.8554  97.9135 0002742 189.9004 170.1598 15.16606630248598
Epoch: 2026-07-16T09:33Z
TLE epoch observation values (Epoch: 2026-07-16T09:33:29.149Z)
Latitude
-0.00003°
Longitude
20.30172°
Altitude
516.557 km
Speed
7.607 km/s
True Right ascension
06h 31m 39s
True Declination
0° 00' 00"
Sunlit
Object was in daylight at epoch
Visualization orbit readout
Latitude
Unknown
Longitude
Unknown
Altitude
Unknown
Speed
Unknown
Apparent Right ascension
Unknown
Apparent Declination
Unknown
Sunlit
N/A
Visualization observer readout
Local Sidereal Time
20:34:44
Azimuth
Unknown
Elevation
Unknown
Doppler factor
Unknown
Orbital elements
Apogee altitude
521.721 km
Perigee altitude
517.939 km
Semi-major axis
6,897.967 km
Eccentricity
0.00027
Inclination
31.8554°
RAAN
97.9135°
Arg. of periapsis
189.9004°
True anomaly
170.16517°
Mean anomaly
170.1598°
Eccentric anomaly
170.16248°
Mean motion
3.78845 °/min
Orbital period
95.03 mins
BSTAR
0.00015455

Documentation

Showing up to 5 results
|